[[{"header":{"parameterUnit":"m.s-1","parameterCategory":1,"la1":30.2991,"la2":30.254,"lo1":-89.0895,"lo2":-89.0444,"dy":0.0017,"dx":0.0017,"nx":28,"ny":28,"refTime":"2023-11-12T09:00:00:Z","depth":0,"parameterNumber":2,"parameterNumberName":"U-component_of_WINDS"},"data":[0,0,0,0,0,0,0,0,0,0,0,0,0,0,0,0,0,0,0,0,0,0,0,0,0,0,0,0,0,0,0,0,0,0,0,0,0,0,0,0,0,0,0,0,0,0,0,0,0,0,0,0,0,0,0,0,0,0,-4.2961,-4.2961,0,-4.3014,-4.3015,-4.3015,-4.2938,-4.2935,-4.2933,-4.293,-4.2987,-4.2991,-4.2995,0,0,0,0,0,0,0,0,0,0,0,0,0,-4.2794,-4.2797,-4.2961,-4.2961,-4.2962,-4.3014,-4.3015,-4.3016,-4.2938,-4.2935,-4.2932,-4.2929,-4.2986,-4.299,-4.2995,0,0,0,0,0,0,0,0,0,0,0,0,0,-4.2859,-4.2798,-4.2961,-4.293,-4.2928,-4.3014,-4.3015,-4.3016,-4.2939,-4.2935,-4.2931,-4.2927,-4.2984,-4.299,-4.2996,-4.3116,0,0,-4.3015,-4.3017,0,0,0,0,0,0,0,0,-4.2855,-4.2865,-4.2934,-4.2932,-4.293,-4.2965,-4.2977,-4.3049,-4.294,-4.2935,-4.293,-4.2925,-4.2983,-4.2989,-4.3008,-4.3118,-4.3121,-4.3015,-4.3019,-4.3022,-4.3023,0,0,0,0,0,0,0,-4.2851,-4.2862,-4.2982,-4.2935,-4.2932,-4.2914,-4.2919,-4.299,-4.2982,-4.2935,-4.293,-4.2937,-4.2981,-4.3003,-4.3009,-4.3122,-4.3015,-4.302,-4.3024,-4.3027,-4.3333,-4.3337,0,0,0,0,0,0,-4.285,-4.2859,-4.298,-4.2983,-4.2882,-4.292,-4.2925,-4.2958,-4.298,-4.298,-4.294,-4.2933,-4.2994,-4.3002,-4.3011,-4.3153,-4.3021,-4.3027,-4.3031,-4.3328,-4.3334,-4.3339,0,0,0,0,0,0,-4.2846,-4.2861,-4.2978,-4.292,-4.2933,-4.2927,-4.2965,-4.2961,-4.2982,-4.2984,-4.2983,-4.2963,-4.2991,-4.3002,-4.309,-4.3153,-4.303,-4.3035,-4.3323,-4.333,-4.3336,-4.3437,0,0,0,0,0,0,-4.2842,-4.2861,-4.2906,-4.2921,-4.2937,-4.3056,-4.2968,-4.2965,-4.2993,-4.2984,-4.3006,-4.3005,-4.2989,-4.3081,-4.3096,-4.316,-4.304,-4.3317,-4.3326,-4.3334,-4.3428,-4.3447,-4.3462,0,0,0,0,0,-4.2836,-4.2932,-4.2908,-4.2923,-4.2993,-4.306,-4.3069,-4.3047,-4.2998,-4.3044,-4.3045,-4.3005,-4.3144,-4.3091,-4.3107,-4.3173,-4.3313,-4.3324,-4.3334,-4.3421,-4.3443,-4.3462,0,0,0,0,0,0,-4.2925,-4.2934,-4.2907,-4.3011,-4.3035,-4.3047,-4.3104,-4.3072,-4.3111,-4.3101,-4.3073,-4.3079,-4.3173,-4.3182,-4.3123,-4.329,-4.3221,-4.3234,-4.3281,-4.3303,-4.3319,-4.3316,-4.3045,0,0,0,0,0,-4.2957,-4.301,-4.3015,-4.3106,-4.312,-4.311,-4.3138,-4.3119,-4.3144,-4.3154,-4.3161,-4.3187,-4.3237,-4.327,-4.3316,-4.3429,-4.3433,-4.3482,-4.3499,-4.3513,-4.3526,-4.3587,-4.3609,-4.3372,-4.3372,-4.3372,0,0,-4.3023,-4.3034,-4.307,-4.3124,-4.3141,-4.3197,-4.3119,-4.3182,-4.3224,-4.3164,-4.3247,-4.3254,-4.328,-4.3382,-4.3427,-4.3392,-4.3592,-4.3526,-4.3537,-4.3542,-4.36,-4.3622,-4.3642,-4.3379,-4.3377,-4.3376,0,0,-4.3172,-4.3186,-4.3263,-4.3281,-4.3307,-4.33,-4.3318,-4.3335,-4.3337,-4.342,-4.3376,-4.3425,-4.3511,-4.3532,-4.3554,-4.3711,-4.3676,-4.3727,-4.3816,-4.3876,-4.3895,-4.3911,-4.3968,-4.3988,-4.3739,-4.3739,-4.3739,0,-4.3251,-4.3334,-4.3307,-4.3374,-4.3399,-4.3346,-4.3425,-4.3444,-4.3484,-4.3503,-4.3463,-4.357,-4.3584,-4.369,-4.3728,-4.3747,-4.3768,-4.3724,-4.3894,-4.391,-4.3925,-4.3979,-4.4,-4.3745,-4.3744,-4.3744,-4.3743,0,-4.343,-4.3488,-4.3548,-4.3587,-4.3619,-4.3691,-4.3677,-4.3712,-4.3691,-4.3688,-4.3774,-4.3789,-4.3837,-4.386,-4.384,-4.3963,-4.3941,-4.3898,-4.3827,-4.3954,-4.4004,-4.4025,-4.3754,-4.3752,-4.375,-4.3748,0,0,-4.3638,-4.366,-4.3683,-4.37,-4.3724,-4.3769,-4.3839,-4.3885,-4.3917,-4.3946,-4.4005,-4.4078,-4.4038,-4.4063,-4.4045,-4.4097,-4.4222,-4.4048,-4.4048,-4.408,-4.4359,-4.4392,-4.4417,-4.4198,-4.4202,-4.4205,-4.4357,0,-4.3787,-4.3907,-4.3885,-4.4003,-4.4057,-4.4007,-4.4068,-4.409,-4.4089,-4.4135,-4.4134,-4.4187,-4.413,-4.4145,-4.4194,-4.4196,-4.4277,-4.4185,-4.4253,-4.4256,-4.4249,-4.4443,-4.4478,-4.4621,-4.4377,-4.438,-4.4382,0,-4.3978,-4.4013,-4.4136,-4.4152,-4.4173,-4.4229,-4.4269,-4.4313,-4.4337,-4.4333,-4.4361,-4.4332,-4.4403,-4.433,-4.4427,-4.4365,-4.4391,-4.4397,-4.4402,-4.4408,-4.4328,-4.4455,-4.4666,-4.4688,-4.4413,-4.441,-4.4408,0,-4.4118,-4.4196,-4.428,-4.4296,-4.4316,-4.4356,-4.4367,-4.4386,-4.4415,-4.4451,-4.447,-4.4513,-4.4538,-4.4573,-4.4557,-4.4506,-4.4658,-4.4584,-4.4657,-4.4657,-4.4692,-4.469,-4.4911,-4.4708,-4.4707,-4.4707,-4.4707,0,-4.4288,-4.4365,-4.4343,-4.4395,-4.448,-4.4454,-4.4539,-4.4544,-4.4562,-4.4614,-4.4573,-4.4623,-4.4599,-4.4647,-4.4636,-4.4718,-4.473,-4.4729,-4.4725,-4.4733,-4.4733,-4.4751,-4.4741,-4.4713,-4.4711,-4.471,-4.4709,0,-4.4459,-4.4447,-4.4535,-4.4547,-4.4552,-4.4614,-4.4624,-4.4673,-4.4668,-4.4735,-4.4749,-4.4743,-4.4798,-4.4785,-4.4846,-4.4838,-4.4942,-4.4925,-4.4934,-4.493,-4.5004,-4.4998,-4.5245,-4.5277,-4.5052,-4.5054,-4.5056,0,-4.4569,-4.4627,-4.4645,-4.4676,-4.4689,-4.4741,-4.477,-4.4747,-4.4779,-4.4811,-4.4856,-4.4907,-4.4947,-4.5037,-4.5038,-4.5084,-4.5069,-4.5152,-4.5076,-4.5082,-4.5071,-4.5068,-4.5074,-4.5168,-4.5171,-4.5173,-4.5174,0,-4.4765,-4.4756,-4.4799,-4.4841,-4.4877,-4.4909,-4.4937,-4.4966,-4.4945,-4.4983,-4.5038,-4.5069,-4.513,-4.5182,-4.5224,-4.5235,-4.5203,-4.5198,-4.5218,-4.5227,-4.523,-4.5231,-4.4977,-4.5193,-4.5191,-4.519,-4.5189,-4.5188,-4.4909,-4.4959,-4.4979,-4.5029,-4.5047,-4.5075,-4.5121,-4.5122,-4.5167,-4.5215,-4.5198,-4.5262,-4.5284,-4.5337,-4.5354,-4.5404,-4.5372,-4.54,-4.5408,-4.5415,-4.5425,-4.5221,-4.5411,-4.5411,-4.541,-4.541,-4.5409,0,-4.5104,-4.5114,-4.516,-4.5201,-4.524,-4.5204,-4.5233,-4.5269,-4.5325,-4.5348,-4.5388,-4.5451,-4.5501,-4.5506,-4.5553,-4.5592,-4.5578,-4.5605,-4.5603,-4.5606,-4.545,-4.5429,-4.5616,-4.5616,-4.5616,-4.5616,-4.5616,-4.5616,-4.521,-4.5292,-4.5286,-4.5377,-4.5386,-4.5447,-4.5467,-4.5493,-4.5511,-4.5584,-4.5625,-4.5627,-4.5643,-4.5691,-4.5735,-4.5736,-4.5755,-4.5789,-4.5784,-4.5638,-4.5617,-4.5598,-4.5578,-4.5793,-4.5793,-4.5936,-4.5937,-4.5938]},{"header":{"parameterUnit":"m.s-1","parameterCategory":1,"la1":30.2991,"la2":30.254,"lo1":-89.0895,"lo2":-89.0444,"dy":0.0017,"dx":0.0017,"nx":28,"ny":28,"refTime":"2023-11-12T09:00:00:Z","depth":0,"parameterNumber":3,"parameterNumberName":"V-component_of_WINDS"},"data":[0,0,0,0,0,0,0,0,0,0,0,0,0,0,0,0,0,0,0,0,0,0,0,0,0,0,0,0,0,0,0,0,0,0,0,0,0,0,0,0,0,0,0,0,0,0,0,0,0,0,0,0,0,0,0,0,0,0,-2.7426,-2.7426,0,-2.744,-2.744,-2.744,-2.7408,-2.7407,-2.7406,-2.7406,-2.7419,-2.742,-2.7421,0,0,0,0,0,0,0,0,0,0,0,0,0,-2.737,-2.7372,-2.7426,-2.7426,-2.7426,-2.744,-2.744,-2.744,-2.7409,-2.7407,-2.7406,-2.7405,-2.7418,-2.742,-2.7421,0,0,0,0,0,0,0,0,0,0,0,0,0,-2.739,-2.7372,-2.7426,-2.7412,-2.7411,-2.744,-2.744,-2.744,-2.7409,-2.7407,-2.7406,-2.7405,-2.7418,-2.742,-2.7422,-2.7464,0,0,-2.7427,-2.7428,0,0,0,0,0,0,0,0,-2.7389,-2.7392,-2.7414,-2.7413,-2.7412,-2.7421,-2.7425,-2.7448,-2.7409,-2.741,-2.7406,-2.7404,-2.7421,-2.7422,-2.7428,-2.7464,-2.7465,-2.7428,-2.7429,-2.743,-2.743,0,0,0,0,0,0,0,-2.7388,-2.7392,-2.7431,-2.7414,-2.7413,-2.7405,-2.7406,-2.7429,-2.7423,-2.741,-2.7407,-2.7409,-2.742,-2.7426,-2.7428,-2.7465,-2.7428,-2.7429,-2.743,-2.7431,-2.7536,-2.7538,0,0,0,0,0,0,-2.7389,-2.7391,-2.7431,-2.7432,-2.7397,-2.7407,-2.7408,-2.7419,-2.7423,-2.7422,-2.7411,-2.7408,-2.7424,-2.7426,-2.7428,-2.7478,-2.743,-2.7431,-2.7432,-2.7534,-2.7536,-2.7538,0,0,0,0,0,0,-2.7387,-2.7392,-2.743,-2.7411,-2.7415,-2.741,-2.7422,-2.7421,-2.7427,-2.7424,-2.7423,-2.7419,-2.7423,-2.7426,-2.7455,-2.7478,-2.7432,-2.7434,-2.7533,-2.7535,-2.7537,-2.7578,0,0,0,0,0,0,-2.7386,-2.7392,-2.7409,-2.7411,-2.7416,-2.7457,-2.7424,-2.7422,-2.7431,-2.7427,-2.7431,-2.743,-2.7422,-2.7452,-2.7457,-2.748,-2.7435,-2.753,-2.7534,-2.7537,-2.7574,-2.7581,-2.7587,0,0,0,0,0,-2.7384,-2.7419,-2.741,-2.7415,-2.7436,-2.7459,-2.7461,-2.7451,-2.7433,-2.7449,-2.7447,-2.743,-2.7475,-2.7456,-2.7461,-2.7484,-2.7529,-2.7533,-2.7536,-2.7572,-2.758,-2.7587,0,0,0,0,0,0,-2.7419,-2.7419,-2.7409,-2.7446,-2.7453,-2.7453,-2.7474,-2.746,-2.7472,-2.7469,-2.7455,-2.7456,-2.7488,-2.7489,-2.7468,-2.7525,-2.7499,-2.7503,-2.7524,-2.7532,-2.7538,-2.7537,-2.7437,0,0,0,0,0,-2.7431,-2.745,-2.7449,-2.7481,-2.7485,-2.7479,-2.7488,-2.748,-2.7486,-2.7489,-2.7489,-2.7495,-2.751,-2.7521,-2.7535,-2.7574,-2.7574,-2.7593,-2.7599,-2.7604,-2.7609,-2.763,-2.7638,-2.755,-2.755,-2.755,0,0,-2.7456,-2.7459,-2.7471,-2.7489,-2.7493,-2.7512,-2.7482,-2.7503,-2.7517,-2.7492,-2.752,-2.752,-2.7526,-2.7561,-2.7576,-2.7562,-2.7633,-2.7609,-2.7613,-2.7615,-2.7635,-2.7643,-2.765,-2.7553,-2.7552,-2.7552,0,0,-2.7512,-2.7516,-2.7543,-2.7548,-2.7555,-2.755,-2.7557,-2.756,-2.7559,-2.7587,-2.7569,-2.7584,-2.7611,-2.7617,-2.7623,-2.768,-2.7665,-2.7685,-2.7719,-2.7739,-2.7746,-2.7752,-2.7773,-2.778,-2.7689,-2.7689,-2.7689,0,-2.7542,-2.7571,-2.7559,-2.7582,-2.759,-2.7568,-2.7596,-2.7601,-2.7612,-2.7618,-2.7603,-2.7636,-2.7639,-2.7674,-2.7688,-2.7694,-2.7701,-2.7685,-2.7746,-2.7752,-2.7757,-2.7777,-2.7785,-2.7691,-2.7691,-2.7691,-2.7691,0,-2.7608,-2.7628,-2.7649,-2.7661,-2.7671,-2.7697,-2.7688,-2.77,-2.769,-2.7687,-2.7716,-2.7718,-2.7732,-2.774,-2.773,-2.7774,-2.7765,-2.7748,-2.7721,-2.7768,-2.7787,-2.7794,-2.7695,-2.7694,-2.7693,-2.7693,0,0,-2.7687,-2.7692,-2.77,-2.7705,-2.771,-2.7725,-2.7749,-2.7763,-2.7774,-2.7782,-2.7802,-2.7825,-2.7809,-2.7816,-2.7807,-2.7824,-2.787,-2.7805,-2.7805,-2.7818,-2.7918,-2.7932,-2.7941,-2.786,-2.7861,-2.7862,-2.7918,0,-2.7743,-2.7785,-2.7774,-2.7816,-2.7834,-2.7813,-2.7834,-2.7839,-2.7837,-2.7851,-2.7848,-2.7865,-2.7843,-2.7847,-2.7863,-2.7861,-2.789,-2.7857,-2.7878,-2.7879,-2.7878,-2.795,-2.7965,-2.8017,-2.7925,-2.7926,-2.7927,0,-2.7813,-2.7825,-2.7868,-2.7871,-2.7878,-2.7897,-2.7909,-2.7923,-2.7929,-2.7925,-2.7933,-2.792,-2.7944,-2.7916,-2.7948,-2.7925,-2.7933,-2.7933,-2.7935,-2.7937,-2.7907,-2.7955,-2.8034,-2.8042,-2.7938,-2.7937,-2.7936,0,-2.7868,-2.7893,-2.7923,-2.7927,-2.7931,-2.7945,-2.7947,-2.7951,-2.796,-2.797,-2.7976,-2.7988,-2.7995,-2.8005,-2.7996,-2.7977,-2.8029,-2.8001,-2.8027,-2.8028,-2.804,-2.804,-2.8122,-2.8044,-2.8044,-2.8044,-2.8044,0,-2.7931,-2.7959,-2.7947,-2.7965,-2.7995,-2.7983,-2.8012,-2.8012,-2.8016,-2.8033,-2.8015,-2.8031,-2.8018,-2.8033,-2.8026,-2.8053,-2.8056,-2.8055,-2.8052,-2.8057,-2.8057,-2.8062,-2.8059,-2.8046,-2.8046,-2.8045,-2.8045,0,-2.7997,-2.7991,-2.8021,-2.8022,-2.8023,-2.8045,-2.8045,-2.8062,-2.8057,-2.808,-2.8084,-2.8078,-2.8094,-2.8086,-2.8103,-2.8098,-2.8134,-2.8127,-2.8133,-2.8131,-2.8159,-2.8157,-2.8248,-2.826,-2.8173,-2.8174,-2.8175,0,-2.8039,-2.806,-2.8063,-2.8073,-2.8077,-2.8094,-2.8103,-2.8091,-2.8101,-2.8109,-2.8124,-2.814,-2.8152,-2.818,-2.8176,-2.8189,-2.8183,-2.8214,-2.8184,-2.8188,-2.8184,-2.8183,-2.8185,-2.822,-2.8221,-2.8222,-2.8222,0,-2.8114,-2.8109,-2.8123,-2.8136,-2.8148,-2.8158,-2.8166,-2.8175,-2.8163,-2.8175,-2.8193,-2.8202,-2.822,-2.8235,-2.8247,-2.8248,-2.8234,-2.8231,-2.8238,-2.8243,-2.8246,-2.8246,-2.815,-2.823,-2.8229,-2.8228,-2.8228,-2.8228,-2.8169,-2.8187,-2.8192,-2.8208,-2.8213,-2.822,-2.8236,-2.8234,-2.8248,-2.8262,-2.8254,-2.8274,-2.8279,-2.8292,-2.8296,-2.8311,-2.8299,-2.8309,-2.8312,-2.8314,-2.8318,-2.8243,-2.8313,-2.8313,-2.8313,-2.8313,-2.8312,0,-2.8243,-2.8245,-2.8261,-2.8272,-2.8285,-2.827,-2.8278,-2.829,-2.8308,-2.8313,-2.8325,-2.8345,-2.836,-2.8357,-2.8371,-2.8384,-2.8377,-2.8388,-2.8387,-2.8388,-2.8328,-2.8321,-2.8393,-2.8393,-2.8393,-2.8393,-2.8393,-2.8393,-2.8284,-2.8313,-2.8309,-2.8339,-2.8341,-2.8361,-2.8367,-2.8374,-2.8378,-2.8401,-2.8414,-2.8412,-2.8414,-2.8428,-2.8441,-2.8439,-2.8445,-2.8459,-2.8455,-2.84,-2.8392,-2.8384,-2.8378,-2.846,-2.846,-2.8513,-2.8514,-2.8514]}]]